NUSAT-3 (MILANESAT)

Last updated on Fri Oct 04 2024 00:02:26 GMT+0000 (Coordinated Universal Time)

1 42760U 17034C 24277.51514443 .00054870 00000+0 13963-2 0 9990 2 42760 43.0066 313.7310 0015252 24.6007 335.5574 15.38679812404237
UTC large
Height (km)
Speed (km/s)
/
Latitude / Longitude
Inclination (degrees)
Orbital Period (minutes)
Azimuth
Elevation
Range (km)
Doppler Factor

Next 0 passes for location: London (51.5072 / 0.1276)

Sorry there are no passes over London.